Change the Weather History Date:

Wednesday, April 9, 2014

  Actual Average Record
Temperature  
Mean Temperature 54 °F -  
Max Temperature 62 °F 62 °F 77 °F (2001)
Min Temperature 46 °F 48 °F 33 °F (1997)
Degree Days  
Heating Degree Days 11    
Growing Degree Days 4 (Base 50)    
Moisture  
Dew Point 45 °F    
Average Humidity 69    
Maximum Humidity 88    
Minimum Humidity 38    
Precipitation  
Precipitation 0.00 in - - ()
Sea Level Pressure  
Sea Level Pressure 29.97 in    
Wind  
Wind Speed 2 mph ()    
Max Wind Speed 7 mph    
Max Gust Speed -    
Visibility 5.4 miles    
Events      
Averages and records for this station are not official NWS values.
T = Trace of Precipitation, MM = Missing Value Source: Averaged Metar Reports

Daily Weather History Graph

Daily Weather History Graph

Search for Another Location

Airport or City:

Trip Planner

Search our weather history database for the weather conditions in past years. The results will help you decide how hot, cold, wet, or windy it might be!

Date:

Astronomy

Apr. 09, 2014 Rise Set
Actual Time 6:35 AM EEST 7:37 PM EEST
Civil Twilight 6:07 AM EEST 8:05 PM EEST
Nautical Twilight 5:34 AM EEST 8:39 PM EEST
Astronomical Twilight 4:59 AM EEST 9:14 PM EEST
Moon 2:05 PM EEST (4/9) 3:15 AM EEST (4/9)
Length of Visible Light 13h 58m
Length of Day
13h 02m
Waxing Gibbous, 69% of the Moon is Illuminated
Apr 9
Waxing Gibbous
Apr 15
Full
Apr 22
Last Quarter
Apr 29
New
May 7
First Quarter

Hourly Weather History & Observations

Time (EEST) Temp. Dew Point Humidity Pressure Visibility Wind Dir Wind Speed Gust Speed Precip Events Conditions
12:00 AM 52 °F 45 °F 71% 30.06 in 6 mi Calm Calm - -  
12:20 AM 51.8 °F 44.6 °F 76% 30.04 in - Calm Calm - N/A   Clear
12:50 AM 50.0 °F 44.6 °F 82% 30.04 in - Calm Calm - N/A   Clear
1:20 AM 51.8 °F 44.6 °F 76% 30.04 in - Calm Calm - N/A   Clear
1:50 AM 51.8 °F 44.6 °F 76% 30.04 in - WSW 3.5 mph - N/A   Clear
2:20 AM 50.0 °F 42.8 °F 76% 30.04 in - Calm Calm - N/A   Clear
2:50 AM 46.4 °F 42.8 °F 87% 30.01 in - Calm Calm - N/A   Clear
3:00 AM 47 °F 41 °F 74% 30.03 in 6 mi Calm Calm - -  
3:20 AM 48.2 °F 42.8 °F 82% 30.01 in - Calm Calm - N/A   Clear
3:50 AM 48.2 °F 42.8 °F 82% 30.01 in - Calm Calm - N/A   Clear
4:20 AM 48.2 °F 44.6 °F 87% 30.01 in - SSE 2.3 mph - N/A   Clear
4:50 AM 46.4 °F 42.8 °F 87% 30.01 in - Calm Calm - N/A   Clear
5:20 AM 48.2 °F 44.6 °F 87% 29.98 in - Calm Calm - N/A   Clear
5:50 AM 48.2 °F 44.6 °F 87% 29.98 in - Variable 1.2 mph - N/A   Clear
6:00 AM 48 °F 45 °F 85% 30.01 in 6 mi ESE 1.2 mph - -  
6:20 AM 48.2 °F 44.6 °F 87% 30.01 in 5.0 mi ESE 3.5 mph - N/A   Unknown
6:50 AM 48.2 °F 44.6 °F 87% 29.98 in 4.3 mi ESE 3.5 mph - N/A   Unknown
7:20 AM 50.0 °F 46.4 °F 87% 29.98 in 4.3 mi ESE 3.5 mph - N/A   Unknown
7:50 AM 51.8 °F 48.2 °F 88% 30.01 in 3.7 mi ESE 4.6 mph - N/A   Unknown
8:20 AM 53.6 °F 48.2 °F 82% 30.01 in 4.3 mi South 4.6 mph - N/A   Unknown
8:50 AM 53.6 °F 48.2 °F 82% 30.01 in - SSW 3.5 mph - N/A   Clear
9:00 AM 54 °F 48 °F 72% 30.01 in 6 mi SSW 3.5 mph - -  
9:20 AM 55.4 °F 48.2 °F 77% 30.01 in - SSW 4.6 mph - N/A   Clear
9:50 AM 55.4 °F 48.2 °F 77% 30.01 in - South 5.8 mph - N/A   Clear
10:20 AM 55.4 °F 48.2 °F 77% 30.01 in - SSE 5.8 mph - N/A   Clear
10:50 AM 55.4 °F 46.4 °F 72% 30.01 in - South 4.6 mph - N/A   Clear
11:20 AM 57.2 °F 46.4 °F 67% 30.01 in - South 5.8 mph - N/A   Clear
11:50 AM 55.4 °F 46.4 °F 72% 30.01 in - SSW 6.9 mph - N/A   Clear
12:00 PM 56 °F 45 °F 58% 30.01 in 6 mi SSW 6.9 mph - -  
12:20 PM 57.2 °F 46.4 °F 67% 30.01 in - South 5.8 mph - N/A   Clear
12:50 PM 57.2 °F 46.4 °F 67% 29.98 in - SSW 6.9 mph - N/A   Clear
1:20 PM 57.2 °F 46.4 °F 67% 29.98 in - SSW 6.9 mph - N/A   Clear
1:50 PM 59.0 °F 48.2 °F 67% 29.98 in - SSW 6.9 mph - N/A   Clear
2:20 PM 59.0 °F 46.4 °F 63% 29.98 in - SSW 6.9 mph - N/A   Clear
2:50 PM 60.8 °F 46.4 °F 59% 29.95 in - South 5.8 mph - N/A   Clear
3:00 PM 60 °F 44 °F 43% 29.96 in 6 mi South 5.8 mph - -  
3:20 PM 60.8 °F 46.4 °F 59% 29.95 in - South 5.8 mph - N/A   Clear
3:50 PM 62.6 °F 46.4 °F 55% 29.92 in - South 3.5 mph - N/A   Clear
4:20 PM 60.8 °F 44.6 °F 55% 29.92 in - Variable 1.2 mph - N/A   Clear
4:50 PM 62.6 °F 44.6 °F 52% 29.92 in - Calm Calm - N/A   Clear
5:20 PM 62.6 °F 44.6 °F 52% 29.89 in - Calm Calm - N/A   Clear
5:50 PM 62.6 °F 44.6 °F 52% 29.89 in - Calm Calm - N/A   Clear
6:00 PM 62 °F 43 °F 38% 29.91 in 6 mi Calm Calm - -  
6:20 PM 60.8 °F 42.8 °F 52% 29.89 in - Calm Calm - N/A   Clear
6:50 PM 60.8 °F 42.8 °F 52% 29.89 in - Calm Calm - N/A   Clear
7:20 PM 59.0 °F 44.6 °F 59% 29.89 in - Calm Calm - N/A   Clear
7:50 PM 59.0 °F 44.6 °F 59% 29.89 in - ESE 4.6 mph - N/A   Clear
8:20 PM 57.2 °F 44.6 °F 63% 29.89 in - Variable 4.6 mph - N/A   Clear
8:50 PM 59.0 °F 44.6 °F 59% 29.89 in - Variable 5.8 mph - N/A   Clear
9:00 PM 60 °F 44 °F 45% 29.89 in 6 mi ESE 5.8 mph - -  
9:20 PM 57.2 °F 46.4 °F 67% 29.89 in - East 4.6 mph - N/A   Clear
9:50 PM 59.0 °F 44.6 °F 59% 29.89 in - East 4.6 mph - N/A   Clear
10:20 PM 60.8 °F 44.6 °F 55% 29.89 in - ESE 5.8 mph - N/A   Clear
10:50 PM 59.0 °F 42.8 °F 55% 29.89 in - Calm Calm - N/A   Clear
11:20 PM 59.0 °F 42.8 °F 55% 29.89 in - ESE 3.5 mph - N/A   Clear
11:50 PM 55.4 °F 42.8 °F 63% 29.89 in - Calm Calm - N/A   Clear